GFSSGP_250_spd_000.txt.gz
Wind_Speed
27 27 29 31 32 36 41 48 41 39 44 54 56 55 54 59 60 58 50 46 45 47 47 48 49 47 51 53 56 60 61 65 66 63 66 68 67 69 75 78 80 86 94 95 100 100 94 89 84
35 34 31 34 38 42 43 52 43 50 53 57 62 61 63 62 64 54 49 48 47 45 48 49 54 56 57 57 60 60 61 69 66 64 63 65 64 63 66 72 77 81 89 94 98 100 102 98 91
38 40 39 39 39 42 47 54 50 53 56 65 67 64 62 61 61 53 53 51 47 44 41 49 54 60 57 59 60 62 69 68 65 64 61 60 62 63 62 64 71 77 82 92 96 97 102 104 99
45 50 43 44 44 44 51 60 60 65 62 68 74 68 65 62 58 55 53 51 47 42 46 51 55 56 58 57 62 67 73 67 63 59 56 57 57 63 64 65 67 73 78 83 91 98 102 103 100
55 53 50 46 48 52 57 65 69 68 67 73 79 73 63 62 55 54 54 52 46 46 50 55 64 61 60 63 68 74 72 63 57 53 53 52 53 58 64 67 68 72 77 80 85 92 99 104 102
57 60 59 55 56 60 63 71 74 72 73 72 81 70 62 58 51 55 55 53 50 50 57 60 67 65 64 69 73 75 71 61 54 53 52 54 54 55 59 65 69 72 76 80 84 89 93 99 103
61 62 62 63 64 65 70 74 73 71 75 74 84 68 61 53 54 56 55 57 54 57 64 64 69 64 68 74 78 77 66 56 55 55 54 52 52 51 52 60 68 72 75 79 84 87 91 94 98
62 69 67 70 69 70 73 78 76 77 76 78 82 65 55 54 55 56 54 55 57 62 63 68 69 71 77 76 79 70 58 58 55 53 51 49 49 50 50 55 63 67 75 79 84 89 87 90 94
65 68 72 71 72 74 79 78 76 74 71 82 72 56 54 56 55 58 56 58 58 61 65 70 71 78 76 78 71 60 58 51 45 43 42 43 42 44 45 51 56 63 67 77 81 86 90 89 89
66 69 69 69 71 75 75 76 71 75 80 83 67 57 53 54 58 55 59 61 62 65 68 68 77 77 77 72 60 59 51 42 36 34 34 36 37 39 41 42 47 56 61 67 77 81 86 90 91
69 67 68 70 76 76 79 81 77 82 84 72 57 52 53 57 56 57 56 59 61 65 67 72 77 80 71 62 59 52 48 45 36 29 29 30 32 34 36 38 41 45 52 57 66 75 79 84 90
72 66 72 81 75 76 76 79 82 85 75 65 49 51 54 56 60 59 57 60 64 67 71 77 78 72 67 58 54 49 49 45 36 27 25 26 28 30 32 33 36 40 45 51 57 64 71 78 84
72 76 74 76 78 82 76 85 85 74 68 59 51 54 60 60 60 63 60 62 66 72 75 80 75 68 57 55 49 47 43 38 33 25 20 22 24 25 26 29 31 35 39 43 51 59 61 69 79
73 75 75 76 73 77 82 84 76 68 68 58 56 61 61 60 61 62 62 66 69 74 77 71 67 58 52 47 46 40 35 30 26 21 16 14 17 19 21 25 30 32 35 38 42 49 55 58 70
76 74 73 74 79 81 83 75 62 61 63 60 58 57 59 60 61 65 65 69 73 76 72 64 60 48 48 43 37 33 31 26 22 17 13 11 10 12 17 21 25 28 30 35 38 44 49 55 62
79 75 76 78 80 84 81 62 59 61 61 61 57 56 58 60 64 67 69 72 74 70 63 58 47 45 42 39 27 29 30 27 23 16 10 8 8 10 13 18 21 25 28 32 37 40 44 50 58
72 72 74 81 82 79 66 56 60 60 59 59 56 59 60 63 66 70 69 70 64 59 56 45 39 39 36 29 21 23 26 26 29 21 12 6 4 5 10 14 17 23 27 30 33 36 40 45 55
75 77 81 85 80 55 47 46 49 52 52 58 59 60 60 62 64 61 63 58 55 49 43 36 36 32 33 22 15 16 20 26 31 24 17 10 4 2 4 9 13 19 25 29 31 34 38 45 52
77 80 69 55 44 41 42 45 50 53 51 51 53 56 58 58 55 54 54 49 42 36 30 33 32 28 28 19 16 14 13 22 26 27 21 17 10 6 4 5 10 15 21 25 30 35 40 45 50
71 54 42 40 41 42 39 41 42 42 43 44 42 43 44 48 51 47 46 38 29 26 28 31 25 24 21 15 19 18 15 17 19 24 27 21 16 12 8 6 9 13 19 23 27 32 36 42 47
46 42 37 38 38 37 38 43 41 40 42 44 45 43 44 47 41 40 34 26 23 23 28 26 20 21 17 12 19 21 17 16 12 18 23 18 21 19 13 9 9 11 16 21 24 32 37 42 48
36 33 33 32 33 32 36 38 34 36 41 41 41 38 38 36 33 32 25 19 19 23 25 23 17 15 11 8 12 15 13 19 14 10 16 18 20 21 20 16 13 14 16 21 27 31 37 41 45
26 24 28 29 28 28 29 32 35 36 37 34 33 28 32 29 29 25 18 16 18 23 22 19 15 13 9 5 8 15 13 13 15 13 15 15 16 18 19 19 19 16 20 22 27 31 38 43 47
23 23 27 30 31 29 32 31 31 32 32 32 28 31 28 27 26 21 15 13 18 22 20 15 12 9 8 5 9 14 17 13 14 15 15 14 9 12 10 21 18 19 20 23 27 32 39 43 45
22 24 29 31 33 34 33 32 32 30 29 30 27 29 29 27 23 18 11 14 18 19 18 12 9 6 6 6 6 10 14 20 18 18 20 26 15 10 11 14 16 20 24 29 33 38 41 44 49
22 26 29 30 32 35 33 32 32 27 26 26 28 29 27 21 20 10 11 14 16 16 15 9 7 3 9 8 9 11 13 14 22 26 27 34 24 18 15 13 19 26 35 38 37 42 42 50 57
22 24 28 28 33 34 36 34 32 25 24 25 29 29 15 17 17 7 11 14 14 13 13 6 5 2 10 12 11 11 17 20 19 28 25 32 34 24 20 18 20 28 33 36 49 48 53 66 67
26 27 28 30 33 31 39 39 34 25 23 23 28 19 12 13 13 7 9 13 13 12 10 6 5 1 10 18 14 9 18 23 22 24 25 29 29 33 28 24 21 26 31 34 39 46 44 61 59
31 29 31 31 32 31 40 42 32 30 22 22 24 20 7 9 9 7 8 11 12 12 9 4 5 1 10 18 14 12 16 19 20 24 24 24 25 26 35 32 29 23 31 35 47 49 49 57 55
33 36 35 35 32 35 37 41 32 29 21 22 23 19 4 7 10 9 8 10 12 11 10 4 5 1 6 23 18 17 12 16 20 21 22 25 22 20 29 37 34 26 24 38 50 56 60 67 56

GFSSGP_250_spd_003.txt.gz
Wind_Speed
39 34 42 40 44 45 51 45 44 45 46 52 59 64 64 65 68 67 73 60 57 59 54 53 51 50 47 50 51 56 60 61 64 68 69 71 76 80 82 84 90 91 96 98 98 99 96 93 88
40 40 42 44 51 49 57 53 46 44 50 56 62 66 71 72 70 71 73 60 56 57 53 55 55 49 42 46 51 55 60 63 64 69 71 73 75 80 82 81 85 91 91 93 99 102 103 100 95
43 44 50 52 53 58 61 59 49 48 55 60 66 70 75 74 72 73 73 58 58 51 55 55 54 47 47 51 57 61 62 63 64 66 69 72 74 74 74 70 73 82 87 86 90 99 105 106 101
50 46 50 52 55 58 64 62 59 58 60 66 72 78 78 77 70 78 76 60 52 51 55 55 54 52 52 58 63 64 64 62 60 64 68 71 71 70 71 67 67 73 79 83 85 92 101 109 106
53 56 58 56 57 59 63 66 64 65 65 72 75 79 72 75 73 77 71 57 51 53 57 52 57 57 58 64 66 67 68 69 68 67 68 70 69 68 69 66 65 67 72 75 81 86 94 104 108
57 58 61 59 53 56 65 69 72 67 74 73 75 77 81 76 79 77 62 53 55 56 55 56 60 62 62 64 67 68 71 70 68 68 68 64 64 64 65 65 66 66 69 71 75 84 89 94 105
59 56 64 60 57 63 70 71 69 72 74 71 78 78 80 80 82 73 58 56 59 57 58 60 62 63 66 68 68 68 71 67 68 66 64 61 60 60 62 65 66 67 68 70 71 80 86 88 96
59 59 62 62 65 68 75 71 70 74 69 76 83 80 77 83 87 72 61 58 57 61 61 58 61 62 68 67 69 76 69 71 62 61 59 57 58 56 59 61 65 66 69 71 73 76 83 87 91
62 63 67 67 68 71 73 73 72 65 73 83 80 84 83 87 80 63 56 55 58 63 59 61 58 60 66 70 77 74 73 62 58 53 51 46 52 52 53 54 58 64 67 71 73 76 80 85 87
65 63 65 71 70 71 73 67 65 71 79 83 83 79 85 83 69 57 56 56 60 61 58 61 61 67 71 74 78 72 65 58 50 47 43 38 41 45 48 48 50 54 63 69 74 76 78 83 85
62 65 66 67 69 70 65 67 74 78 84 85 77 84 84 75 62 58 57 59 61 59 62 63 67 71 74 80 71 67 58 51 45 44 43 37 36 35 37 40 42 46 52 64 71 74 78 80 84
64 68 69 69 69 68 71 78 78 80 84 80 80 83 76 67 60 63 62 60 61 63 66 69 72 74 78 73 68 56 51 43 44 40 38 34 32 31 31 33 35 39 45 52 65 69 74 79 80
63 69 61 57 66 77 72 75 77 81 84 79 83 72 61 61 46 43 61 62 64 65 69 74 76 77 69 63 56 49 40 39 36 36 34 30 27 28 29 27 30 33 39 45 53 60 68 74 80
67 63 69 72 66 74 77 73 75 78 75 82 79 66 64 44 46 63 64 60 65 69 73 77 72 66 61 58 46 39 34 31 33 33 30 26 23 22 24 23 24 29 35 40 45 50 61 68 76
64 70 67 71 74 74 72 73 78 81 79 81 76 61 62 64 66 67 63 64 68 72 72 69 66 59 51 41 38 30 29 26 30 28 24 21 19 17 18 19 22 26 30 35 40 45 53 59 68
69 65 71 73 70 67 73 77 80 81 79 74 58 56 60 62 62 61 63 66 68 67 63 63 56 47 38 36 29 25 24 24 28 28 23 15 16 14 13 15 18 22 27 32 36 40 47 56 61
64 61 62 70 74 73 70 73 75 76 63 49 47 49 54 53 50 54 57 59 57 59 59 52 43 33 34 28 21 24 20 21 27 28 22 14 11 9 9 10 15 20 23 27 34 34 38 47 55
64 63 66 67 73 70 74 71 68 51 46 44 44 42 43 44 46 46 47 50 55 55 50 40 30 31 30 22 17 23 17 19 26 28 25 22 12 7 4 6 11 17 20 24 31 37 40 42 53
63 62 63 64 67 70 72 61 55 51 48 46 44 43 41 43 46 49 48 52 51 48 39 30 26 29 23 16 17 20 19 14 21 26 27 26 19 7 3 1 7 14 20 24 29 34 36 37 45
59 59 61 63 63 64 52 51 47 45 46 45 41 37 40 44 44 43 46 46 44 36 29 23 26 24 18 11 16 18 19 14 14 19 25 25 22 11 6 1 6 11 18 24 30 35 38 40 43
57 56 58 57 55 46 43 40 33 35 38 39 40 38 38 39 40 39 39 39 37 29 22 22 22 19 15 10 15 15 17 16 13 15 21 24 25 20 8 3 5 10 16 22 30 34 38 41 41
57 58 55 49 40 33 31 29 27 29 31 30 33 33 33 35 35 36 37 34 30 21 20 22 18 15 12 8 14 12 10 12 14 12 15 14 19 23 18 5 6 9 15 20 26 33 37 39 38
60 50 40 31 27 27 26 25 28 31 32 28 27 26 31 32 31 34 32 28 22 17 20 22 15 12 8 5 11 14 5 7 8 13 16 13 13 17 21 13 5 10 14 18 27 32 37 37 41
42 32 27 24 24 24 26 22 30 31 32 24 25 28 27 29 31 32 27 25 18 17 18 18 11 9 1 5 10 11 11 12 17 18 13 7 10 15 20 18 8 13 15 18 26 32 34 34 38
33 27 22 21 21 25 27 30 28 31 31 28 27 26 25 25 28 27 23 19 16 18 17 14 9 5 5 6 8 11 15 14 23 22 22 17 13 8 12 14 11 16 16 20 24 27 28 34 38
29 26 22 20 22 28 24 31 28 32 32 34 32 30 24 21 24 22 20 17 15 17 17 11 6 4 7 9 9 5 14 22 22 24 27 25 18 11 9 10 14 18 21 22 25 26 29 38 43
27 20 22 22 23 28 29 31 32 34 34 36 33 27 23 21 24 18 16 14 15 15 14 8 6 4 6 12 11 6 16 18 18 21 27 25 20 13 10 12 18 22 28 24 28 32 36 37 39
22 25 23 24 25 28 29 32 35 36 35 36 33 25 21 20 17 13 11 12 14 14 12 8 6 3 7 14 11 9 10 20 21 17 21 30 24 13 13 12 18 28 30 37 37 40 37 38 43
27 25 27 25 29 30 32 35 31 35 34 36 35 25 23 19 13 10 8 11 15 13 12 6 8 4 5 17 12 16 14 16 16 16 19 25 29 18 13 11 17 31 32 29 31 38 35 40 52
29 25 30 30 33 32 34 32 30 32 35 35 35 26 20 13 9 11 9 12 14 10 10 5 6 6 1 18 13 15 15 11 11 20 19 20 25 26 20 20 20 31 30 31 34 37 41 43 53

GFSSGP_250_spd_006.txt.gz
Wind_Speed
41 41 40 41 39 42 49 51 50 52 56 51 54 49 51 54 62 66 68 71 73 71 70 64 53 48 47 50 54 56 55 56 64 65 67 70 73 76 80 82 85 86 85 87 95 97 98 95 90
38 34 38 45 46 46 54 53 55 51 55 57 63 61 61 61 68 68 67 78 77 73 76 66 55 47 49 54 56 55 53 56 62 67 70 70 72 77 83 86 87 89 92 92 94 97 98 99 93
49 47 51 50 52 53 56 59 59 51 53 56 62 65 65 68 69 64 75 79 78 77 76 69 50 47 53 54 53 54 55 57 65 67 70 73 75 74 81 87 90 91 93 94 93 92 99 100 102
49 50 55 57 56 58 61 61 61 54 58 61 68 73 64 68 63 64 79 82 80 81 78 53 53 50 54 56 56 57 60 64 68 71 76 75 78 81 80 82 85 87 92 91 92 91 95 100 104
54 54 52 56 61 62 63 63 64 59 62 67 68 73 72 66 64 71 82 82 77 80 78 54 51 58 59 58 62 66 66 67 69 70 73 76 77 77 78 80 82 81 83 85 82 84 90 94 99
53 53 56 58 59 61 64 58 58 63 67 71 74 77 75 60 68 75 85 86 79 79 71 60 62 58 56 59 63 64 63 64 66 69 72 75 75 76 75 76 77 79 78 79 76 76 83 87 90
56 54 58 62 63 63 62 58 60 71 69 75 73 71 63 65 75 80 88 87 84 73 65 59 56 56 59 62 60 58 58 62 65 69 72 72 70 70 69 67 70 73 74 75 75 72 77 80 83
59 60 63 64 65 65 62 63 67 67 72 73 74 63 66 72 81 84 86 84 82 68 62 58 57 60 61 56 58 63 66 68 72 75 69 66 63 62 61 57 62 61 64 67 70 68 71 75 80
58 61 63 64 63 65 64 67 69 72 68 69 63 64 75 82 83 88 92 86 72 62 59 58 60 59 58 60 64 68 76 78 73 66 64 59 57 56 53 51 54 52 56 61 63 64 68 71 79
59 60 68 67 66 65 69 68 70 72 69 64 67 76 80 85 87 87 90 86 68 57 54 57 61 59 64 68 71 79 75 66 64 62 57 55 52 49 45 42 43 46 45 51 60 62 66 69 73
67 67 71 73 71 69 65 65 71 70 66 70 74 79 78 86 83 88 86 70 59 54 47 57 65 62 68 71 78 73 67 62 57 54 51 49 44 38 34 36 36 41 39 43 49 59 65 68 71
74 68 71 73 71 68 65 67 68 64 73 77 79 82 89 81 86 83 75 68 62 60 57 69 67 67 74 76 72 67 55 53 50 46 46 43 39 32 29 29 31 34 36 36 43 50 60 65 68
76 76 76 77 77 69 73 61 64 67 70 74 81 81 81 83 87 78 64 61 56 59 67 68 66 71 71 67 68 53 49 46 41 39 40 36 36 30 26 26 24 27 33 34 37 42 53 61 67
83 78 78 76 68 62 68 61 61 74 77 79 76 80 81 87 71 55 59 62 64 62 59 58 64 64 63 63 52 45 45 38 31 31 34 35 31 28 25 22 20 22 29 33 35 39 45 55 63
74 72 66 63 62 60 60 62 73 79 76 78 79 83 83 59 49 49 52 56 52 51 50 51 54 62 59 50 41 41 38 31 25 25 28 28 24 23 21 19 16 17 24 30 32 37 41 48 58
67 66 57 58 62 62 60 57 66 71 76 77 79 80 66 55 50 47 49 50 49 49 50 54 56 56 45 40 36 33 28 22 18 25 27 28 22 19 17 15 12 13 20 26 30 37 39 44 55
60 57 59 53 59 62 57 59 66 76 78 74 77 56 56 56 52 50 49 47 46 46 49 52 52 44 37 34 31 26 20 17 13 20 27 28 22 15 13 10 8 9 16 22 28 34 36 41 50
62 61 63 66 66 67 63 68 70 68 69 76 56 54 50 52 46 48 47 47 44 45 47 46 41 34 31 28 24 16 14 14 15 19 24 27 24 15 10 7 5 7 11 19 26 30 35 38 48
63 67 66 64 59 68 69 68 68 64 70 52 48 48 50 44 42 44 44 42 41 43 44 39 33 30 28 23 16 11 14 11 13 17 19 24 25 20 10 6 2 5 11 17 24 27 31 36 42
63 67 68 63 59 66 63 60 57 55 46 43 42 43 40 37 38 40 37 36 38 41 37 30 27 28 22 14 11 13 12 16 19 17 17 18 20 20 13 5 2 6 13 17 23 28 32 35 41
65 61 60 57 60 61 57 56 51 41 37 38 37 40 36 34 32 34 34 34 37 36 28 25 25 26 16 6 9 8 9 15 17 17 19 16 21 21 16 5 2 8 12 18 24 31 32 33 38
64 60 55 56 58 58 61 43 37 32 33 32 34 33 36 31 33 35 33 35 35 29 23 24 24 20 10 5 10 7 9 12 15 19 22 22 16 20 20 6 3 11 16 20 26 32 36 30 36
59 64 58 57 57 61 53 32 28 23 24 27 26 28 32 32 31 31 33 32 27 22 20 22 22 15 7 4 8 10 13 11 15 17 18 22 18 18 18 9 5 11 17 20 23 29 36 35 35
63 62 60 59 54 42 33 26 21 21 26 26 27 29 29 30 30 31 30 26 19 19 19 20 18 12 2 2 11 15 16 15 12 18 22 22 19 12 18 11 6 13 18 23 23 28 33 29 37
66 63 59 48 36 31 29 21 20 26 29 32 32 29 26 28 29 26 25 18 16 17 19 18 14 9 2 6 14 15 13 14 17 21 22 21 15 15 17 12 9 13 19 20 23 26 32 33 34
56 51 38 34 31 27 22 17 19 27 30 32 34 32 29 27 26 24 21 15 14 17 18 16 11 6 5 8 14 15 14 17 21 18 25 28 13 12 16 12 13 17 22 22 24 27 28 28 34
37 29 35 30 30 22 19 17 19 25 29 33 34 33 28 26 27 24 17 13 12 17 16 12 10 2 7 11 15 14 12 9 17 20 21 22 17 12 11 13 14 21 29 28 22 27 29 30 38
31 33 30 30 27 18 19 20 22 28 28 30 32 32 29 26 26 24 13 11 13 17 14 9 5 3 8 11 18 14 17 14 11 17 23 20 12 7 7 14 21 28 27 24 23 24 28 37 40
32 31 31 31 22 23 18 21 24 26 26 31 33 34 31 28 25 20 12 10 13 18 12 8 5 5 7 11 15 15 16 11 11 11 21 24 14 5 8 15 23 30 28 28 27 27 40 42 41
41 37 34 24 23 21 20 24 24 28 27 30 30 33 31 27 26 23 13 10 13 16 10 9 5 5 6 12 15 18 12 11 13 12 15 22 19 10 14 18 27 31 31 25 25 27 37 37 41

GFSSGP_250_spd_012.txt.gz
Wind_Speed
47 45 45 48 50 43 44 43 41 44 47 45 43 48 51 53 55 56 56 57 62 63 68 64 63 68 58 59 67 75 79 68 60 43 41 43 49 53 58 62 64 66 69 73 78 82 82 83 86
47 48 47 50 52 48 46 46 43 44 44 44 44 47 52 56 57 61 61 63 62 68 69 67 67 59 62 65 71 79 75 68 47 45 48 49 49 55 61 63 66 70 71 75 78 83 88 89 88
47 48 48 52 53 53 51 48 49 46 46 48 47 46 51 59 61 67 68 62 65 70 70 70 66 64 68 74 77 77 71 58 46 48 49 53 59 56 59 62 63 66 73 77 80 84 87 91 94
55 52 52 54 55 55 57 50 49 49 50 52 50 49 51 60 66 68 65 65 67 72 77 76 68 69 75 79 80 79 70 49 48 51 52 57 55 54 56 61 65 68 71 75 78 83 88 92 95
56 59 58 57 62 60 59 55 54 54 55 55 52 49 53 61 65 70 66 67 72 80 79 67 68 73 80 86 78 70 61 50 50 51 54 55 58 59 63 64 69 73 76 77 80 82 85 89 93
59 59 60 61 66 63 58 59 57 60 59 57 57 53 60 63 69 68 68 71 78 81 75 69 71 78 82 81 75 57 49 48 50 51 54 58 59 63 65 67 71 74 76 79 80 83 85 86 88
63 62 62 67 66 68 63 60 63 65 64 61 53 59 65 69 70 71 73 77 80 77 68 71 75 80 77 82 63 54 51 48 47 49 53 57 56 60 65 68 71 75 76 77 80 82 83 85 85
64 63 67 68 67 69 64 59 61 64 64 62 59 68 72 72 74 75 76 77 73 70 74 78 80 77 83 70 59 54 54 51 45 46 50 53 57 60 64 65 67 69 70 71 73 75 78 80 82
68 64 68 70 69 67 67 63 67 66 65 65 65 73 74 74 76 77 75 72 69 73 77 83 84 87 80 53 56 54 55 53 50 56 58 57 58 61 61 61 59 60 59 60 62 66 70 73 76
69 69 70 71 70 68 68 68 71 68 68 69 70 77 71 73 74 72 73 70 70 76 82 84 83 79 58 52 56 57 56 54 51 54 57 59 58 54 54 53 52 52 53 54 55 59 62 66 68
73 67 68 72 72 73 71 72 70 72 72 70 73 74 72 76 74 73 73 72 77 86 91 88 79 61 58 56 55 56 53 54 53 55 57 55 51 49 49 48 48 48 46 47 48 52 56 58 61
74 67 69 67 70 71 74 70 74 71 68 71 76 68 68 75 71 73 71 77 82 89 84 64 57 57 57 56 53 54 51 51 52 52 50 46 46 44 41 44 47 47 44 43 45 46 49 50 52
73 69 69 71 75 71 69 72 68 66 68 68 65 66 68 72 72 75 81 81 82 81 62 58 55 55 51 51 53 52 49 50 47 47 45 40 38 37 40 44 46 39 36 36 39 41 43 43 42
77 75 72 72 69 68 65 63 66 66 67 69 67 65 69 69 75 79 84 85 89 77 60 60 56 51 47 50 50 48 47 44 41 42 40 35 35 37 39 39 39 33 29 31 34 35 38 36 40
74 75 70 66 68 67 60 65 66 65 66 67 63 65 66 74 77 83 85 83 79 61 59 56 49 46 47 47 47 44 41 37 38 39 33 32 34 36 36 33 32 28 26 28 27 28 30 33 40
69 66 63 67 57 59 60 62 62 61 59 58 60 65 71 68 75 77 77 79 62 56 54 54 49 44 45 46 42 41 34 35 34 32 32 28 33 34 33 31 28 25 23 23 23 24 27 32 39
67 62 62 59 57 61 57 60 57 51 52 57 63 67 62 71 73 75 68 58 54 55 53 49 45 43 44 41 36 34 33 30 31 30 27 27 28 33 32 28 26 23 19 18 19 21 26 31 38
64 60 56 60 59 60 61 55 47 50 51 57 61 61 70 75 72 66 64 55 55 53 51 47 42 40 39 34 32 31 28 28 24 24 27 23 28 31 30 25 22 19 15 15 15 20 25 30 34
63 56 56 61 60 59 52 42 48 52 57 61 61 68 72 69 73 55 54 52 52 47 47 40 38 38 33 29 30 27 24 23 24 26 28 26 30 31 25 23 19 15 12 12 14 19 25 28 28
59 56 59 62 59 55 43 46 52 53 60 64 65 67 70 75 60 54 52 49 48 46 42 36 36 32 26 29 26 21 19 19 23 23 26 31 32 26 21 20 14 11 10 12 16 21 25 27 27
58 57 59 53 51 41 43 48 52 57 59 62 63 63 64 52 53 52 48 46 46 40 35 34 32 26 25 26 20 16 18 22 20 20 26 30 27 18 17 14 10 8 9 12 17 20 24 29 29
57 54 50 44 45 47 50 55 59 56 61 60 56 53 42 48 45 47 44 41 37 33 31 29 25 25 25 21 16 10 15 21 23 21 24 26 22 18 14 8 5 5 9 14 20 23 29 31 30
51 55 52 46 52 54 56 57 55 56 56 58 54 40 40 37 39 43 35 34 32 29 27 22 24 24 21 16 10 8 13 12 15 23 28 24 22 16 10 2 3 6 12 15 20 26 31 30 30
57 43 43 43 45 48 55 53 57 57 52 51 47 33 30 29 34 35 33 29 26 22 20 21 24 22 16 10 5 7 5 14 20 27 33 22 22 18 9 3 5 8 13 18 21 25 30 31 34
53 48 44 48 47 56 51 50 54 50 48 51 32 31 26 25 30 30 25 23 19 18 20 21 22 18 12 5 7 3 7 16 20 25 35 22 19 18 6 6 7 11 16 20 21 24 28 33 39
56 56 51 53 56 55 51 47 53 45 45 28 29 24 20 25 23 22 21 17 15 18 20 19 20 12 9 6 9 3 10 16 18 27 33 18 18 13 7 8 8 12 16 18 20 20 26 37 42
63 53 56 56 55 55 49 52 51 42 31 24 21 16 16 23 21 19 20 14 15 17 18 17 17 11 8 6 10 1 8 12 18 25 28 16 17 10 7 11 14 15 17 18 18 18 26 34 43
58 60 59 50 45 49 51 48 45 26 22 21 14 14 15 19 19 17 17 11 13 14 17 16 18 11 8 7 11 3 6 12 15 24 31 20 13 8 10 15 19 18 18 20 18 18 24 31 41
61 59 57 53 49 45 46 43 27 26 21 18 14 14 13 16 19 17 16 10 10 12 16 15 17 11 8 6 11 6 8 13 17 22 28 16 11 10 12 14 14 15 18 20 20 20 24 29 38
70 68 64 57 48 51 50 32 28 23 19 14 10 11 10 15 20 18 16 10 12 13 15 14 14 12 8 7 12 7 8 12 17 23 24 12 12 13 17 15 15 13 12 15 19 23 26 31 40

GFSSGP_250_spd_015.txt.gz
Wind_Speed
39 42 44 45 45 44 49 45 42 40 44 46 44 41 44 48 51 50 52 54 55 60 63 65 65 64 65 71 60 68 61 68 70 71 72 76 71 53 46 49 52 59 67 70 74 75 76 79 80
41 43 47 45 48 50 55 50 46 45 49 49 48 45 47 50 55 56 50 52 58 60 65 65 67 67 70 72 65 70 65 65 68 73 77 75 58 46 48 48 52 53 58 68 70 73 76 77 82
41 50 46 47 51 55 57 52 49 53 52 51 50 52 50 54 59 56 55 59 63 65 67 65 68 70 76 75 65 60 63 69 74 74 80 59 48 47 52 55 56 59 59 65 73 77 75 79 82
54 41 45 53 54 57 55 52 56 59 55 52 53 59 55 56 59 61 58 63 69 71 74 71 70 74 73 74 62 72 71 72 77 77 67 55 49 51 54 60 64 66 66 65 69 76 79 80 80
59 62 55 57 61 58 57 55 60 60 58 57 56 58 63 63 66 62 62 68 75 79 77 74 72 73 75 70 70 69 70 76 79 70 55 55 53 53 59 63 67 67 68 65 68 75 82 85 86
58 57 57 60 65 61 60 58 61 62 61 62 57 58 61 64 66 64 68 74 79 80 79 74 74 70 63 71 78 79 76 75 70 51 50 54 54 52 54 58 63 66 68 69 70 72 79 86 89
64 62 62 64 69 67 61 63 63 64 64 64 62 61 64 66 68 69 73 77 83 84 83 79 74 69 72 79 82 78 72 65 53 48 49 55 53 51 52 57 60 65 71 74 75 76 78 81 87
66 62 65 70 71 66 67 69 68 65 66 66 66 68 69 72 72 72 75 80 85 82 78 75 69 69 78 82 82 64 56 51 53 50 49 52 51 50 56 54 56 62 66 68 73 76 78 81 83
66 65 71 77 69 66 72 74 70 67 68 67 68 72 73 73 72 72 76 80 79 79 75 72 74 77 86 87 77 59 56 55 53 51 50 48 49 51 51 53 56 60 66 70 72 76 78 79 82
68 70 73 74 70 71 72 74 70 72 71 71 72 73 70 70 70 73 77 77 78 74 75 77 82 87 89 71 67 60 54 53 52 51 52 52 51 52 54 55 57 55 58 60 62 66 71 76 79
72 70 72 73 72 73 73 75 74 72 70 71 74 71 69 68 73 76 78 79 76 73 76 81 88 88 71 62 62 57 53 52 54 56 54 54 54 54 52 52 51 52 53 55 57 59 62 65 68
75 68 72 72 75 74 74 73 73 72 69 77 74 65 67 71 72 76 74 77 71 72 78 82 83 73 59 59 57 50 49 51 53 52 53 52 50 48 45 44 44 44 46 48 51 50 52 56 62
76 73 71 73 76 79 76 70 71 71 74 73 67 69 68 70 72 71 72 72 73 78 80 86 80 61 56 54 53 49 48 49 51 50 49 47 43 39 37 37 38 40 42 46 47 45 45 48 52
77 73 74 76 77 78 72 67 71 74 73 69 65 65 65 70 65 66 70 72 77 81 85 75 62 55 54 51 49 47 47 49 48 46 43 41 35 33 33 36 39 39 43 46 43 39 41 42 44
77 74 77 76 75 70 71 66 70 71 67 60 62 62 67 66 61 66 70 76 81 86 80 60 54 53 50 50 49 47 48 45 41 40 38 34 33 35 33 38 41 42 42 41 34 35 37 37 38
71 76 73 77 77 75 68 66 64 63 61 63 62 64 64 58 62 68 74 79 84 81 71 61 55 52 50 50 46 46 44 39 39 35 30 32 32 33 37 40 42 41 38 34 30 32 33 33 35
72 75 77 79 78 73 61 62 61 60 60 62 63 64 58 61 65 70 75 80 79 71 61 55 54 51 49 47 44 42 38 37 34 29 30 30 33 37 42 45 41 36 32 26 26 27 27 28 31
77 78 75 77 73 64 60 56 59 59 59 59 59 56 56 61 66 71 76 75 75 61 58 53 50 48 45 42 40 36 35 31 28 28 28 32 36 37 39 36 34 30 25 20 21 22 23 24 26
72 66 67 75 70 62 60 56 59 59 58 57 54 53 59 64 67 70 74 77 61 58 54 50 46 44 40 34 34 33 31 26 24 27 31 35 37 36 35 31 29 24 18 16 15 16 18 19 21
66 62 64 73 69 60 57 54 57 56 52 46 49 54 59 64 69 73 75 61 54 56 50 45 41 37 32 29 32 29 26 26 25 28 32 34 35 33 30 28 23 17 14 13 11 13 15 17 21
66 60 65 68 62 53 55 54 55 52 44 44 52 56 60 64 69 70 68 55 56 54 45 42 37 29 27 29 29 24 24 22 22 23 25 30 32 29 29 24 17 10 9 8 8 11 17 20 21
67 68 68 65 63 56 54 52 53 46 43 50 56 57 58 63 65 70 56 54 57 45 42 34 28 26 28 28 24 20 16 15 17 20 29 35 28 27 24 17 9 6 6 6 10 14 20 21 21
67 70 68 66 61 55 53 44 48 40 50 51 54 53 58 63 63 52 52 53 44 42 37 28 27 27 27 25 19 14 11 12 19 23 32 33 24 23 19 9 5 2 4 9 14 18 23 24 25
69 72 67 61 55 46 47 47 43 42 47 49 50 52 56 57 47 45 46 49 41 37 29 26 24 25 24 18 13 6 7 17 21 28 33 28 22 21 13 7 2 2 7 12 16 20 26 26 24
54 53 50 45 40 38 54 36 36 40 43 46 48 50 47 43 41 45 48 43 34 29 23 23 22 22 19 13 6 3 10 19 21 27 31 22 21 16 11 6 4 5 9 13 14 20 24 24 27
46 44 41 43 45 48 46 30 36 39 41 45 48 43 38 34 37 38 33 32 29 22 19 20 18 17 15 10 3 3 11 19 23 26 30 20 19 15 9 8 7 9 12 13 14 19 20 20 25
55 42 46 49 46 40 26 35 40 42 41 47 43 32 32 33 33 33 29 28 23 17 17 18 16 15 14 8 4 3 12 20 20 24 28 19 18 13 10 11 11 17 16 16 16 17 23 23 34
60 54 56 47 37 31 35 40 39 37 35 41 30 29 28 30 29 27 26 21 17 13 15 17 16 15 13 7 1 2 11 15 21 23 23 18 17 14 12 11 15 16 16 14 15 19 25 30 41
62 54 46 41 38 41 42 40 38 34 42 30 23 26 25 28 23 24 19 13 12 11 13 18 16 15 13 6 3 2 10 18 21 26 18 17 15 15 10 14 11 13 14 14 16 22 27 28 40
64 61 58 54 51 46 45 41 33 35 36 26 20 21 23 21 17 19 11 11 11 8 12 16 17 14 13 5 5 5 9 14 22 25 17 18 20 16 16 14 9 8 11 15 15 20 19 24 37